Location: Greenhawk Observatory
(37.3417°N, 122.0298°W)
Time: 14:48:13
(UTC-08:00)

Envisat - Visible Passes

Search period start: 19 November 2018 00:00
Search period end: 29 November 2018 00:00
Orbit: 764 x 766 km, 98.2° (Epoch: 19 November)

Date Brightness Start Highest point End Pass type
(mag) Time Alt. Az. Time Alt. Az. Time Alt. Az.
19 Nov 3.5 18:26:34 31° E 18:27:44 35° ENE 18:32:19 10° N visible
19 Nov 5.0 20:06:47 24° W 20:06:47 24° W 20:10:52 10° NW visible
20 Nov 4.4 17:49:33 14° E 17:51:21 16° ENE 17:54:23 10° NNE visible
20 Nov 3.5 19:24:54 10° S 19:29:52 56° W 19:34:52 10° NNW visible
21 Nov 2.9 18:48:09 10° SSE 18:53:09 63° ENE 18:58:10 10° N visible
21 Nov 5.8 20:32:56 13° W 20:32:56 13° W 20:34:55 10° WNW visible
22 Nov 3.8 18:15:41 26° E 18:16:38 28° ENE 18:20:53 10° NNE visible
22 Nov 4.7 19:51:04 10° SSW 19:55:54 30° W 20:00:00 10° NW visible
23 Nov 6.5 06:26:05 10° E 06:26:50 10° E 06:27:35 10° E visible
23 Nov 4.6 17:38:37 11° E 17:40:19 13° ENE 17:42:26 10° NE visible
23 Nov 3.1 19:13:37 10° S 19:18:50 72° W 19:23:45 10° NNW visible
24 Nov 3.1 18:37:09 10° SE 18:42:00 49° ENE 18:46:53 10° N visible
24 Nov 5.5 20:21:58 17° W 20:21:58 17° W 20:24:33 10° NW visible
25 Nov 4.1 18:04:39 21° E 18:05:33 22° ENE 18:09:23 10° NNE visible
25 Nov 4.2 19:39:32 10° SSW 19:44:51 38° W 19:49:02 10° NNW visible
26 Nov 2.9 19:02:24 10° SSE 19:07:44 81° N 19:12:35 10° NNW visible
27 Nov 3.4 18:26:13 10° SE 18:30:53 38° ENE 18:35:33 10° N visible
27 Nov 5.2 20:06:05 10° SW 20:10:48 21° W 20:13:52 10° NW visible
28 Nov 4.3 17:53:26 17° E 17:54:28 18° ENE 17:57:46 10° NNE visible
28 Nov 3.8 19:28:07 10° S 19:33:38 48° WNW 19:37:59 10° NNW visible
